Weather observations for the past three days for
San Diego, Miramar MCAS/Mitscher Field Airport
Imperial (Metric)
Date Time (pdt) Wind (mph) Vis. (mi.) Weather Sky Cond. Temperature (ºF) Relative Humidity Wind Chill (°F) Heat Index (°F) Pressure Precipitation (in)
Air Dwpt 6 hour altimeter (in) sea level (mb) 1 hr 3 hr 6 hr
Max. Min.
24 05:55 Calm 1.00 Fog/Mist CLR 68 64 87% 30.02 1015.8
24 04:55 Calm 7.00 Fog/Mist CLR 69.1 64.9 72 68 87% 30 1015.1
24 03:55 NW 7 7.00 Fog/Mist BKN005 68 64.9 90% 29.98 1014.7
24 02:55 NW 7 8.00 Fog/Mist CLR 69.1 64.9 87% 29.98 1014.5
24 01:55 Calm 8.00 Fog/Mist CLR 69.1 64 84% 29.98 1014.5
24 00:55 W 3 9.00 Fog/Mist CLR 68 63 84% 29.98 1014.5
23 23:55 Calm 9.00 Fog/Mist CLR 72 64.9 79% 29.98 1014.4
23 22:55 N 5 8.00 Fog/Mist CLR 70 64.9 80.1 70 84% 29.98 1014.4
23 21:55 NW 7 9.00 Fog/Mist CLR 71.1 64 79% 29.96 1013.8
23 20:55 NW 5 9.00 Fog/Mist CLR 71.1 64 79% 29.95 1013.4
23 19:55 W 6 8.00 Fog/Mist CLR 72 64 76% 29.94 1013.2
23 17:55 W 6 8.00 Fog/Mist CLR 78.1 64 62% 80 29.91 1012.3
23 16:55 W 7 9.00 Fog/Mist CLR 78.1 64 84 78.1 62% 80 29.92 1012.6
23 15:55 W 9 10.00 Fog/Mist CLR 79 64 60% 81 29.92 1012.5
23 14:55 W 10 10.00 Fog/Mist CLR 82 64 55% 84 29.92 1012.4
23 11:55 W 8 8.00 Fog/Mist CLR 81 64.9 58% 83 29.92 1012.5
23 09:55 W 8 7.00 Fog/Mist CLR 80.1 66 62% 82 29.93 1012.7
23 08:55 NW 5 5.00 Fog/Mist CLR 77 64 64% 79 29.92 1012.6
23 07:55 Calm 2.50 Fog/Mist CLR 73.9 64 71% 29.91 1012.3
23 06:55 NW 3 1.25 Fog/Mist CLR 69.1 64 84% 29.9 1011.8
23 04:55 NW 3 3.00 Fog/Mist CLR 66.9 63 68 66.9 87% 29.87 1010.7
23 03:55 Calm 7.00 Fog/Mist CLR 66.9 63 87% 29.84 1009.8
23 02:55 N 5 7.00 Fog/Mist CLR 66.9 63 87% 29.85 1010.2
23 01:55 N 6 6.00 Fog/Mist CLR 66.9 63 87% 29.86 1010.5
23 00:55 NW 7 7.00 Fog/Mist CLR 68 63 84% 29.86 1010.4
22 23:55 Calm 7.00 Fog/Mist CLR 66.9 63 87% 29.87 1010.7
22 22:55 W 5 7.00 Fog/Mist CLR 66.9 63 79 66.9 87% 29.87 1011.0
22 20:55 SW 5 5.00 Fog/Mist SCT010 68 63 84% 29.87 1010.8
22 19:55 SW 6 6.00 Fog/Mist SCT010 69.1 64 84% 29.85 1010.3
22 18:55 SW 7 7.00 Fair CLR 73.9 64 71% 29.84 1009.8
22 17:55 W 9 7.00 Fair CLR 77 64 64% 79 29.83 1009.5
22 16:55 Vrbl 6 8.00 Fair CLR 79 64 82 78.1 60% 81 29.83 1009.4
22 15:55 NW 9 8.00 Fair CLR 80.1 64 58% 82 29.83 1009.6
22 13:55 W 10 7.00 Fair CLR 80.1 64.9 60% 82 29.86 1010.4
22 12:55 W 7 7.00 Fair CLR 81 64.9 58% 83 29.86 1010.4
22 11:55 W 8 7.00 Fair CLR 80.1 64 58% 82 29.87 1010.7
22 10:55 SW 8 6.00 Fair CLR 79 64 80.1 62.1 60% 81 29.88 1011.1
22 09:55 SW 6 7.00 Fair CLR 78.1 64 62% 80 29.88 1011.1
22 07:55 Calm 7.00 Fair CLR 70 63 79% 29.87 1010.8
22 05:55 Calm 7.00 Fair CLR 63 60.1 90% 29.86 1010.6
22 04:55 W 3 3.00 Fair CLR 64 60.1 66.9 63 87% 29.86 1010.4
22 03:55 W 3 3.00 Fair CLR 64 60.1 87% 29.85 1010.3
22 02:55 NW 3 5.00 Fair CLR 66 62.1 87% 29.86 1010.5
22 00:55 NW 5 6.00 Fair CLR 66 62.1 87% 29.88 1011.1
21 23:55 Calm 6.00 Fair CLR 66 62.1 87% 29.89 1011.7
21 22:55 Calm 6.00 Fair CLR 66 60.1 79 66 81% 29.89 1011.5
21 21:55 Calm 7.00 Fair CLR 66.9 62.1 84% 29.9 1011.8
21 20:55 SW 5 7.00 A Few Clouds FEW100 66.9 62.1 84% 29.89 1011.7
21 19:55 SW 5 6.00 Fair CLR 69.1 63 81% 29.88 1011.2
21 18:55 SW 6 6.00 A Few Clouds FEW100 72 63 73% 29.87 1011.0
21 17:55 SW 6 7.00 Fair CLR 75 62.1 64% 77 29.87 0.0
21 14:55 W 8 7.00 A Few Clouds FEW080 79 63 58% 81 29.9 1011.8
21 13:55 W 6 7.00 Fair CLR 80.1 63 56% 81 29.91 1012.3
21 12:55 Vrbl 7 G 16 7.00 Fair CLR 80.1 63 56% 81 29.91 1012.3
21 11:55 SW 9 7.00 Fair CLR 79 64 60% 81 29.92 1012.6
21 10:55 SW 7 7.00 Fair CLR 80.1 64 58% 82 29.92 1012.7
21 09:55 Vrbl 3 7.00 Fair CLR 77 64 64% 79 29.92 1012.7
21 08:55 Calm 6.00 Fair CLR 73.9 64 71% 29.92 1012.4
21 07:55 S 5 5.00 A Few Clouds FEW008 71.1 64 79% 29.91 1012.1
21 06:55 Calm 3.00 Mostly Cloudy BKN006 66.9 63 87% 29.89 1011.7
Date Time (pdt) Wind (mph) Vis. (mi.) Weather Sky Cond. Air Dwpt Max. Min. Relative Humidity Wind Chill (°F) Heat Index (°F) altimeter (in) sea level (mb) 1 hr 3 hr 6 hr
6 hour
Temperature (ºF) Pressure Precipitation (in)